Location: Te Maire Creek
(41.1333°S, 175.9167°E)
Time: 23:04:07
(UTC+00:00)

Cosmos 1900 - Pass Details

Date: 19 May 2024
Orbit: 682 x 736 km, 66.1° (Epoch: 22 June)

Event Time Altitude Azimuth Distance (km) Brightness Sun altitude
Exits shadow 18:13:02 13° 220° (SW) 1,998 6.2 -13.0°
Maximum altitude 18:17:24 56° 296° (WNW) 855 4.5 -12.2°
Drops below altitude 10° 18:22:19 10° 13° (NNE) 2,209 7.3 -11.3°
Sets 18:24:43 0° 17° (NNE) 3,130 8.2 -10.9°
